EW1036 Weather Reports


Display with metric or nautical units.
time (UTC)temp
F
wind
direction
speed
MPH
gust
MPH
rain 1hr
in
rain 24hr
in
rain mn
in
humidity
%
barometer
mb
20260905230532 74 56 1.0 5.0 0.03 0.28 0.28 96 1010.4
20260905230057 74 158 0.0 3.0 0.02 0.27 0.27 96 1010.6
20260905225535 74 0 0.0 2.0 0.02 0.26 0.26 96 1009.9
20260905225032 74 0 0.0 2.0 0.03 0.26 0.26 95 1009.7
20260905224559 74 0 0.0 2.0 0.06 0.25 0.25 96 1009.9
20260905224033 74 0 0.0 2.0 0.07 0.25 0.25 96 1010.1
20260905223535 74 0 0.0 0.0 0.08 0.25 0.25 96 1010.2
20260905223055 74 0 0.0 0.0 0.08 0.25 0.25 95 1009.8
20260905222533 74 0 0.0 0.0 0.08 0.25 0.25 95 1009.5
20260905222032 74 0 0.0 2.0 0.08 0.25 0.25 95 1009.5
20260905221549 74 0 0.0 3.0 0.08 0.25 0.25 95 1009.1
20260905221029 74 0 0.0 3.0 0.08 0.25 0.25 95 1008.9
20260905220532 74 39 1.0 3.0 0.08 0.25 0.25 95 1009.7
20260905220057 74 0 0.0 2.0 0.08 0.25 0.25 95 1009.8
20260905215533 75 0 0.0 1.0 0.07 0.24 0.24 95 1010.6
20260905215033 75 0 0.0 1.0 0.06 0.23 0.23 94 1010.2
20260905214554 75 0 0.0 2.0 0.02 0.19 0.19 95 1011.1
20260905214032 75 0 0.0 3.0 0.01 0.18 0.18 95 1010.5
20260905213531 75 0 0.0 4.0 0.00 0.17 0.17 94 1009.5
20260905213050 75 171 0.0 4.0 0.00 0.17 0.17 94 1009.2
20260905212534 76 0 0.0 3.0 0.00 0.17 0.17 94 1008.9
20260905212032 76 0 0.0 1.0 0.00 0.17 0.17 94 1009.4
20260905211608 77 0 0.0 1.0 0.00 0.17 0.17 95 1009.6
20260905211033 77 0 0.0 1.0 0.00 0.17 0.17 95 1009.3
20260905210533 77 0 0.0 3.0 0.00 0.17 0.17 95 1009.4
20260905210108 76 0 0.0 5.0 0.00 0.17 0.17 94 1009.6
20260905205532 77 0 0.0 5.0 0.00 0.17 0.17 95 1009.9
20260905205033 78 185 0.0 2.0 0.00 0.17 0.17 95 1009.8
20260905204553 78 0 0.0 0.0 0.00 0.17 0.17 96 1008.9
20260905204029 78 0 0.0 1.0 0.01 0.17 0.17 96 1008.9
20260905203532 77 0 0.0 1.0 0.01 0.17 0.17 95 1009.1
20260905203049 77 0 0.0 0.0 0.03 0.17 0.17 95 1009.2
20260905202533 77 0 0.0 2.0 0.10 0.17 0.17 95 1009.1
20260905202032 77 0 0.0 2.0 0.14 0.17 0.17 94 1008.1
20260905201556 77 58 0.0 0.0 0.17 0.17 0.17 95 1008.4
20260905201028 77 0 0.0 1.0 0.17 0.17 0.17 95 1009.0
20260905200536 76 0 0.0 1.0 0.17 0.17 0.17 94 1008.9
20260905200059 76 0 0.0 1.0 0.17 0.17 0.17 94 1009.0
20260905195535 76 0 0.0 0.0 0.17 0.17 0.17 93 1009.2
20260905195032 77 0 0.0 0.0 0.17 0.17 0.17 92 1009.4
20260905194554 78 0 0.0 4.0 0.17 0.17 0.17 91 1009.0
20260905194032 80 0 0.0 4.0 0.16 0.16 0.16 90 1009.2
20260905193532 82 0 0.0 0.0 0.16 0.16 0.16 91 1009.4
20260905193050 84 0 0.0 0.0 0.13 0.13 0.13 92 1009.1
20260905192531 85 0 0.0 0.0 0.06 0.06 0.06 90 1008.9
20260905192031 86 0 0.0 0.0 0.01 0.01 0.01 85 1009.0
20260905191555 87 0 0.0 0.0 0.00 0.00 0.00 81 1009.1
20260905191035 89 0 0.0 0.0 0.00 0.00 0.00 80 1008.9
20260905190533 90 0 0.0 0.0 0.00 0.00 0.00 73 1009.1
20260905190059 91 0 0.0 0.0 0.00 0.00 0.00 75 1009.2
20260905185532 91 0 0.0 0.0 0.00 0.00 0.00 76 1009.2
20260905185032 91 0 0.0 0.0 0.00 0.00 0.00 74 1009.4
20260905184558 91 0 0.0 0.0 0.00 0.00 0.00 72 1009.5
20260905184032 90 0 0.0 0.0 0.00 0.00 0.00 79 1009.6
20260905183533 90 0 0.0 0.0 0.00 0.00 0.00 80 1009.6
20260905183054 90 0 0.0 0.0 0.00 0.00 0.00 81 1009.8
20260905182532 90 0 0.0 0.0 0.00 0.00 0.00 80 1009.8
20260905182033 90 0 0.0 0.0 0.00 0.00 0.00 78 1009.9
20260905181556 90 0 0.0 0.0 0.00 0.00 0.00 80 1010.0
20260905181032 90 0 0.0 0.0 0.00 0.00 0.00 79 1009.9
20260905180534 90 0 0.0 0.0 0.00 0.00 0.00 79 1010.0
20260905180052 90 0 0.0 0.0 0.00 0.00 0.00 76 1010.0
20260905175534 90 0 0.0 0.0 0.00 0.00 0.00 78 1010.0
20260905175032 91 0 0.0 0.0 0.00 0.00 0.00 74 1010.0
20260905174547 91 0 0.0 0.0 0.00 0.00 0.00 71 1010.0
20260905174035 90 0 0.0 0.0 0.00 0.00 0.00 81 1010.0
20260905173532 91 0 0.0 0.0 0.00 0.00 0.00 77 1010.1
20260905173055 91 0 0.0 0.0 0.00 0.00 0.00 77 1010.2
20260905172533 92 0 0.0 0.0 0.00 0.00 0.00 77 1010.3
20260905172033 92 0 0.0 0.0 0.00 0.00 0.00 75 1010.4
20260905171554 92 0 0.0 0.0 0.00 0.00 0.00 77 1010.4
20260905171032 91 0 0.0 0.0 0.00 0.00 0.00 76 1010.4
20260905170532 91 0 0.0 0.0 0.00 0.00 0.00 78 1010.6
20260905170055 91 0 0.0 0.0 0.00 0.00 0.00 79 1010.7
20260905165532 90 0 0.0 1.0 0.00 0.00 0.00 78 1010.7
20260905165033 92 0 0.0 1.0 0.00 0.00 0.00 78 1010.8
20260905164549 91 0 0.0 1.0 0.00 0.00 0.00 76 1010.9
20260905164034 91 0 0.0 0.0 0.00 0.00 0.00 77 1011.0
20260905163535 92 0 0.0 0.0 0.00 0.00 0.00 77 1011.1
20260905163057 91 0 0.0 0.0 0.00 0.00 0.00 80 1011.3
20260905162535 91 0 0.0 0.0 0.00 0.00 0.00 76 1011.3
20260905162032 92 0 0.0 0.0 0.00 0.00 0.00 80 1011.4
20260905161555 92 0 0.0 0.0 0.00 0.00 0.00 73 1011.5
20260905161032 91 0 0.0 0.0 0.00 0.00 0.00 79 1011.5
20260905160532 91 0 0.0 0.0 0.00 0.00 0.00 75 1011.5
20260905160057 91 0 0.0 0.0 0.00 0.00 0.00 79 1011.7
20260905155534 91 0 0.0 0.0 0.00 0.00 0.00 77 1011.6
20260905155032 91 0 0.0 0.0 0.00 0.00 0.00 75 1011.7
20260905154548 91 0 0.0 0.0 0.00 0.00 0.00 75 1011.8
20260905154033 90 0 0.0 0.0 0.00 0.00 0.00 82 1011.7
20260905153533 90 0 0.0 0.0 0.00 0.00 0.00 82 1011.8
20260905153101 90 0 0.0 0.0 0.00 0.00 0.00 77 1011.8
20260905152533 89 0 0.0 0.0 0.00 0.00 0.00 76 1011.8
20260905152035 89 0 0.0 0.0 0.00 0.00 0.00 78 1011.7
20260905151558 89 0 0.0 0.0 0.00 0.00 0.00 78 1011.8
20260905151032 89 0 0.0 0.0 0.00 0.00 0.00 79 1011.7
20260905150532 89 0 0.0 0.0 0.00 0.00 0.00 81 1011.7
20260905150054 89 0 0.0 0.0 0.00 0.00 0.00 78 1011.7
20260905145532 90 0 0.0 0.0 0.00 0.00 0.00 77 1011.7
20260905145034 88 0 0.0 0.0 0.00 0.00 0.00 82 1011.6
20260905144548 87 0 0.0 0.0 0.00 0.00 0.00 84 1011.6
20260905144031 87 0 0.0 0.0 0.00 0.00 0.00 84 1011.6
20260905143533 87 0 0.0 0.0 0.00 0.00 0.00 84 1011.6
20260905143056 86 0 0.0 0.0 0.00 0.00 0.00 85 1011.7
20260905142532 86 0 0.0 0.0 0.00 0.00 0.00 84 1011.7
20260905142032 86 0 0.0 0.0 0.00 0.00 0.00 86 1011.6
20260905141601 85 0 0.0 0.0 0.00 0.00 0.00 85 1011.5
20260905141035 85 0 0.0 0.0 0.00 0.00 0.00 86 1011.5
20260905140532 84 0 0.0 0.0 0.00 0.00 0.00 85 1011.4
20260905140100 85 0 0.0 0.0 0.00 0.00 0.00 84 1011.5
20260905135532 85 0 0.0 0.0 0.00 0.00 0.00 85 1011.5
20260905135031 86 0 0.0 0.0 0.00 0.00 0.00 83 1011.5
20260905134546 86 0 0.0 0.0 0.00 0.00 0.00 85 1011.4
20260905134033 85 0 0.0 0.0 0.00 0.00 0.00 85 1011.5
20260905133532 85 0 0.0 0.0 0.00 0.00 0.00 85 1011.6
20260905133056 85 0 0.0 0.0 0.00 0.00 0.00 85 1011.6
20260905132532 84 0 0.0 0.0 0.00 0.00 0.00 86 1011.7
20260905132035 84 0 0.0 0.0 0.00 0.00 0.00 86 1011.6
20260905131612 83 0 0.0 0.0 0.00 0.00 0.00 90 1011.6
20260905131032 82 0 0.0 0.0 0.00 0.00 0.00 89 1011.7
20260905130532 82 0 0.0 0.0 0.00 0.00 0.00 88 1011.7
20260905130054 82 0 0.0 0.0 0.00 0.00 0.00 88 1011.7
20260905125533 82 0 0.0 0.0 0.00 0.00 0.00 89 1011.7
20260905125032 82 0 0.0 0.0 0.00 0.00 0.00 89 1011.7
20260905124555 81 0 0.0 0.0 0.00 0.00 0.00 90 1011.7
20260905124034 80 0 0.0 0.0 0.00 0.00 0.00 93 1011.7
20260905123532 79 0 0.0 0.0 0.00 0.00 0.00 94 1011.7
20260905123100 79 0 0.0 0.0 0.00 0.00 0.00 94 1011.6
20260905122532 79 0 0.0 1.0 0.00 0.00 0.00 94 1011.6
20260905122032 79 0 0.0 1.0 0.00 0.00 0.00 94 1011.6
20260905121553 79 0 0.0 0.0 0.00 0.00 0.00 94 1011.5
20260905121032 78 0 0.0 0.0 0.00 0.00 0.00 94 1011.6
20260905120532 78 0 0.0 0.0 0.00 0.00 0.00 94 1011.5
20260905120053 78 0 0.0 0.0 0.00 0.00 0.00 94 1011.5
20260905115532 78 0 0.0 0.0 0.00 0.00 0.00 94 1011.6
20260905115032 78 0 0.0 0.0 0.00 0.00 0.00 94 1011.7
20260905114552 78 0 0.0 0.0 0.00 0.00 0.00 94 1011.7
20260905114037 78 0 0.0 0.0 0.00 0.00 0.00 94 1011.6
20260905113532 78 0 0.0 0.0 0.00 0.00 0.00 93 1011.7
20260905113046 77 0 0.0 0.0 0.00 0.00 0.00 93 1011.7
20260905112532 77 0 0.0 0.0 0.00 0.00 0.00 93 1011.6
20260905112034 77 0 0.0 0.0 0.00 0.00 0.00 93 1011.6
20260905111556 77 0 0.0 0.0 0.00 0.00 0.00 93 1011.5
20260905111034 77 0 0.0 0.0 0.00 0.00 0.00 93 1011.5
20260905110532 77 0 0.0 0.0 0.00 0.00 0.00 93 1011.5
20260905110053 77 0 0.0 0.0 0.00 0.00 0.00 93 1011.5
20260905105533 77 0 0.0 0.0 0.00 0.00 0.00 92 1011.4
20260905105035 77 0 0.0 0.0 0.00 0.00 0.00 92 1011.4
20260905104556 77 0 0.0 0.0 0.00 0.00 0.00 92 1011.3
20260905104032 77 0 0.0 0.0 0.00 0.00 0.00 92 1011.3
20260905103535 76 0 0.0 1.0 0.00 0.00 0.00 92 1011.3
20260905103051 76 0 0.0 1.0 0.00 0.00 0.00 92 1011.4
20260905102532 76 0 0.0 0.0 0.00 0.00 0.00 92 1011.3
20260905102032 76 0 0.0 0.0 0.00 0.00 0.00 92 1011.3
20260905101556 76 0 0.0 0.0 0.00 0.00 0.00 92 1011.3
20260905101032 76 0 0.0 0.0 0.00 0.00 0.00 92 1011.3
20260905100532 76 0 0.0 0.0 0.00 0.00 0.00 92 1011.2
20260905100118 76 0 0.0 0.0 0.00 0.00 0.00 91 1011.1
20260905095534 76 0 0.0 0.0 0.00 0.00 0.00 91 1011.1
20260905095032 76 0 0.0 0.0 0.00 0.00 0.00 91 1011.1
20260905094552 76 0 0.0 0.0 0.00 0.00 0.00 91 1011.0
20260905094032 76 0 0.0 0.0 0.00 0.00 0.00 91 1011.1
20260905093533 76 0 0.0 0.0 0.00 0.00 0.00 92 1011.1
20260905093049 76 0 0.0 0.0 0.00 0.00 0.00 92 1011.1
20260905092536 76 0 0.0 0.0 0.00 0.00 0.00 92 1011.0
20260905092032 76 0 0.0 0.0 0.00 0.00 0.00 92 1011.1
20260905091558 76 0 0.0 0.0 0.00 0.00 0.00 91 1011.2
20260905091033 76 0 0.0 0.0 0.00 0.00 0.00 91 1011.0
20260905090532 76 0 0.0 0.0 0.00 0.00 0.00 91 1011.0
20260905090122 76 0 0.0 0.0 0.00 0.00 0.00 90 1011.1
20260905085533 76 0 0.0 0.0 0.00 0.00 0.00 90 1011.1
20260905085033 76 0 0.0 0.0 0.00 0.00 0.00 90 1011.0
20260905084551 76 0 0.0 0.0 0.00 0.00 0.00 90 1011.2
20260905084039 76 0 0.0 0.0 0.00 0.00 0.00 89 1011.3
20260905083534 76 0 0.0 0.0 0.00 0.00 0.00 89 1011.3
20260905083053 76 0 0.0 0.0 0.00 0.00 0.00 89 1011.2
20260905082533 76 0 0.0 0.0 0.00 0.00 0.00 89 1011.4
20260905082035 76 0 0.0 0.0 0.00 0.00 0.00 89 1011.4
20260905081548 77 0 0.0 0.0 0.00 0.00 0.00 89 1011.4
20260905081032 77 0 0.0 0.0 0.00 0.00 0.00 88 1011.5
20260905080535 77 0 0.0 0.0 0.00 0.00 0.00 89 1011.5
20260905080058 77 0 0.0 0.0 0.00 0.00 0.00 89 1011.5
20260905075532 77 0 0.0 0.0 0.00 0.00 0.00 89 1011.5
20260905075032 77 0 0.0 0.0 0.00 0.00 0.00 89 1011.4
20260905074604 77 0 0.0 0.0 0.00 0.00 0.00 89 1011.5
20260905074033 77 0 0.0 0.0 0.00 0.00 0.00 89 1011.6
20260905073537 77 0 0.0 0.0 0.00 0.00 0.00 89 1011.6
20260905073049 77 0 0.0 0.0 0.00 0.00 0.00 89 1011.7
20260905072532 77 0 0.0 0.0 0.00 0.00 0.00 88 1011.8
20260905072034 77 0 0.0 0.0 0.00 0.00 0.00 88 1011.7
20260905071555 77 0 0.0 0.0 0.00 0.00 0.00 89 1011.5
20260905071036 77 0 0.0 0.0 0.00 0.00 0.00 89 1011.4
20260905070532 77 0 0.0 0.0 0.00 0.00 0.00 89 1011.6
20260905070051 77 0 0.0 0.0 0.00 0.00 0.00 90 1011.3
20260905065532 77 0 0.0 0.0 0.00 0.00 0.00 90 1011.3
20260905065037 77 0 0.0 0.0 0.00 0.00 0.00 90 1011.5
20260905064554 76 0 0.0 0.0 0.00 0.00 0.00 90 1011.6
20260905064035 77 0 0.0 0.0 0.00 0.00 0.00 90 1011.6
20260905063532 77 0 0.0 0.0 0.00 0.00 0.00 90 1011.8
20260905063052 77 0 0.0 0.0 0.00 0.00 0.00 90 1011.6
20260905062531 77 0 0.0 0.0 0.00 0.00 0.00 89 1011.6
20260905062034 77 0 0.0 0.0 0.00 0.00 0.00 89 1011.9
20260905061553 77 0 0.0 0.0 0.00 0.00 0.00 89 1012.1
20260905061031 77 0 0.0 0.0 0.00 0.00 0.00 89 1012.2
20260905060531 77 0 0.0 0.0 0.00 0.00 0.00 89 1012.3
20260905060054 77 0 0.0 0.0 0.00 0.00 0.00 89 1012.1
20260905055536 77 0 0.0 0.0 0.00 0.00 0.00 89 1012.2
20260905055032 77 0 0.0 0.0 0.00 0.00 0.00 89 1012.2
20260905054543 77 0 0.0 0.0 0.00 0.00 0.00 89 1012.1
20260905054032 77 0 0.0 0.0 0.00 0.00 0.00 88 1012.3
20260905053532 77 0 0.0 0.0 0.00 0.00 0.00 88 1012.5
20260905053053 77 0 0.0 0.0 0.00 0.00 0.00 88 1012.6
20260905052531 77 0 0.0 0.0 0.00 0.00 0.00 88 1012.5
20260905052033 77 0 0.0 0.0 0.00 0.00 0.00 88 1012.6
20260905051550 77 0 0.0 0.0 0.00 0.00 0.00 89 1012.6
20260905051033 76 0 0.0 0.0 0.00 0.00 0.00 89 1012.7
20260905050533 76 0 0.0 0.0 0.00 0.00 0.00 90 1012.8
20260905050047 76 0 0.0 0.0 0.00 0.00 0.00 91 1012.7
20260905045533 76 0 0.0 0.0 0.00 0.00 0.00 92 1012.5
20260905045033 76 0 0.0 0.0 0.00 0.00 0.00 92 1012.4
20260905044556 76 0 0.0 0.0 0.00 0.00 0.00 92 1012.3
20260905044032 76 0 0.0 0.0 0.00 0.00 0.00 92 1012.2
20260905043536 76 0 0.0 0.0 0.00 0.00 0.00 92 1012.3
20260905043053 76 0 0.0 0.0 0.00 0.00 0.00 92 1012.4
20260905042532 76 0 0.0 0.0 0.00 0.00 0.00 92 1012.5
20260905042032 76 0 0.0 0.0 0.00 0.00 0.00 92 1012.4
20260905041551 76 0 0.0 0.0 0.00 0.00 0.00 91 1012.5
20260905041032 76 0 0.0 0.0 0.00 0.00 0.00 90 1012.9
20260905040531 76 0 0.0 0.0 0.00 0.00 0.00 89 1012.1
20260905035532 77 0 0.0 2.0 0.00 0.00 0.00 85 1013.0
20260905035031 77 0 0.0 2.0 0.00 0.00 0.00 84 1013.2
20260905034553 78 0 0.0 1.0 0.00 0.00 0.00 85 1013.3
20260905034031 77 0 0.0 1.0 0.00 0.00 0.00 82 1013.1
20260905033534 77 0 0.0 1.0 0.00 0.00 0.00 81 1013.3
20260905033052 77 0 0.0 0.0 0.00 0.00 0.00 81 1014.0
20260905032532 78 0 0.0 1.0 0.00 0.00 0.00 82 1014.4
20260905032033 78 0 0.0 1.0 0.00 0.00 0.00 79 1014.3
20260905031607 78 0 0.0 2.0 0.00 0.00 0.00 79 1014.9
20260905031032 78 0 0.0 3.0 0.00 0.00 0.00 81 1015.3
20260905030532 78 0 0.0 3.0 0.00 0.00 0.00 81 1015.6
20260905030054 78 0 0.0 6.0 0.00 0.00 0.00 80 1015.8
20260905025534 79 0 0.0 6.0 0.00 0.00 0.00 81 1016.3
20260905025032 79 0 0.0 6.0 0.00 0.00 0.00 82 1016.4
20260905024548 79 0 0.0 0.0 0.00 0.00 0.00 83 1016.6
20260905024033 80 0 0.0 6.0 0.00 0.00 0.00 84 1016.7
20260905023533 80 0 0.0 6.0 0.00 0.00 0.00 85 1016.8
20260905023048 81 0 0.0 4.0 0.00 0.00 0.00 85 1016.8
20260905022532 81 0 0.0 4.0 0.00 0.00 0.00 86 1016.4
20260905022032 81 0 0.0 0.0 0.00 0.00 0.00 89 1016.4
20260905021558 81 0 0.0 0.0 0.00 0.00 0.00 90 1016.3
20260905021032 81 0 0.0 0.0 0.00 0.00 0.00 91 1016.2
20260905020536 81 0 0.0 0.0 0.00 0.00 0.00 92 1016.3
20260905020057 81 0 0.0 0.0 0.00 0.00 0.00 91 1015.7
20260905015532 81 0 0.0 0.0 0.00 0.00 0.00 91 1015.4
20260905015032 81 0 0.0 0.0 0.00 0.00 0.00 90 1015.3
20260905014553 81 0 0.0 0.0 0.00 0.00 0.00 90 1015.2
20260905014032 81 0 0.0 0.0 0.00 0.00 0.00 90 1015.3
20260905013532 81 0 0.0 0.0 0.00 0.00 0.00 90 1015.3
20260905013045 81 0 0.0 0.0 0.00 0.00 0.00 90 1015.4
20260905012533 81 0 0.0 1.0 0.00 0.00 0.00 90 1015.2
20260905012034 82 0 0.0 1.0 0.00 0.00 0.00 89 1014.9
20260905011556 82 0 0.0 0.0 0.00 0.00 0.00 89 1014.3
20260905011032 82 0 0.0 0.0 0.00 0.00 0.00 89 1014.0
20260905010533 82 0 0.0 0.0 0.00 0.00 0.00 88 1014.0
20260905010106 82 0 0.0 0.0 0.00 0.00 0.00 88 1013.9
20260905005536 82 0 0.0 0.0 0.00 0.00 0.00 88 1013.9
20260905005033 81 0 0.0 0.0 0.00 0.00 0.00 88 1013.8
20260905004551 81 0 0.0 0.0 0.00 0.00 0.00 88 1013.8
20260905004035 82 0 0.0 0.0 0.00 0.00 0.00 88 1013.7
20260905003533 82 0 0.0 0.0 0.00 0.00 0.00 87 1013.8
20260905003047 82 0 0.0 0.0 0.00 0.00 0.00 87 1013.9
20260905002536 82 0 0.0 0.0 0.00 0.00 0.00 86 1013.9
20260905002034 82 0 0.0 0.0 0.00 0.00 0.00 87 1013.8
20260905001551 82 0 0.0 0.0 0.00 0.00 0.00 86 1013.7
20260905001032 82 0 0.0 0.0 0.00 0.00 0.00 86 1013.7
20260905000533 82 0 0.0 0.0 0.00 0.00 0.00 85 1013.6
20260905000105 82 0 0.0 0.0 0.00 0.00 0.00 85 1013.6
20260904235532 82 0 0.0 0.0 0.00 0.00 0.00 85 1013.6
20260904235032 83 0 0.0 0.0 0.00 0.00 0.00 84 1013.5
20260904234551 82 0 0.0 1.0 0.00 0.00 0.00 84 1013.5
20260904234033 83 0 0.0 1.0 0.00 0.00 0.00 83 1013.4
20260904233533 83 0 0.0 3.0 0.00 0.00 0.00 84 1013.4
20260904233056 83 0 0.0 3.0 0.00 0.00 0.00 83 1013.3
20260904232533 83 0 0.0 0.0 0.00 0.00 0.00 83 1013.3
20260904232036 84 0 0.0 0.0 0.00 0.00 0.00 84 1013.4
20260904231554 84 0 0.0 0.0 0.00 0.00 0.00 84 1013.4
20260904231032 84 0 0.0 0.0 0.00 0.00 0.00 84 1013.3